Find ORCA-2b

NORAD ID: 63221 Int'l Des: NNA 2025-052 Owner: GIT/DARPA2 Country: US operational
LEOCIRCULARRETROGRADESSO

Live Position

Loading 3D Globe...

About ORCA-2b

Description loading...

Upcoming Passes

Passes for default location (London). Set your location on the main map for personalized predictions.

Altitude History

Loading altitude history...

Two-Line Element Set

1 63221U 25052M 26106.65608506 .00002401 00000-0 10981-3 0 9998
2 63221 97.3961 359.8952 0003825 26.2780 333.8649 15.21485846 60483
Epoch: Apr 16, 2026 • Age: 14 hours

Current Status

Altitude 501.6 km
Velocity 7.62 km/s
Sub-Earth Point 3.85°N, 65.07°E
Launch Date Mar 15, 2025
Age 1 years
Type other

Technical Details

Classification Payload
Mass 20.00 kg
Dry Mass 20.00 kg
Total Mass 20.00 kg
Length 0.30 m
Diameter 0.20 m
Span 0.30 m
Shape Box
Manufacturer BLCAN
Bus Type Cubesat 12U
Phase Status In Orbit
Owner/State GIT/DARPA2/US

Most Searched